Regional Weather Roundup
Issued by NWS

Home | Current Version | Previous Version | Text Only | Print | Product List | Glossary Off
Versions: 1 2 3 4 5 6 7 8 9 10 11 12 13 14 15 16 17 18 19 20 21 22 23 24 25 26 27 28 29 30 31 32 33 34 35 36 37 38 39 40 41 42 43 44 45 46 47 48 49 50

000
ASUS43 KMKX 261200
RWRWI

WISCONSIN REGIONAL WEATHER ROUNDUP
NATIONAL WEATHER SERVICE MILWAUKEE/SULLIVAN WI
700 AM CDT MON SEP 26 2016

NOTE: "FAIR" INDICATES FEW OR NO CLOUDS BELOW 12,000 FEET WITH NO
SIGNIFICANT WEATHER AND/OR OBSTRUCTIONS TO VISIBILITY.

WIZ001-002-006>008-014>016-023>028-261300-
NORTHWEST WISCONSIN

CITY           SKY/WX    TMP DP  RH WIND       PRES   REMARKS
SUPERIOR ARPT  CLOUDY    51  47  89 W14G23    29.73S
ASHLAND        LGT RAIN  50  47  89 SW17G26   29.69S
6HR MIN TEMP:  50; 6HR MAX TEMP:  54; 6HR PCP:  0.04;

HAYWARD        CLOUDY    49  46  90 SW12      29.77F
6HR MIN TEMP:  49; 6HR MAX TEMP:  52; 6HR PCP:  0.15;

SIREN          CLOUDY    51  43  72 W13       29.83S
CUMBERLAND     CLOUDY    50  43  76 W20       29.84S
RICE LAKE      CLOUDY    51  43  74 SW12G18   29.85S
CHETEK         NOT AVBL
LADYSMITH      CLOUDY    51  45  82 SW10G16   29.82F
EAU CLAIRE     NOT AVBL
MENOMONIE      PTCLDY    50  44  78 SW14G20   29.88S
NEW RICHMOND   CLEAR     49  40  70 W14       29.90R
OSCEOLA        PTCLDY    50  42  72 W13G20    29.92R
$$

WIZ003>005-009-010-017-018-261300-
NORTH CENTRAL WISCONSIN

CITY           SKY/WX    TMP DP  RH WIND       PRES   REMARKS
MANITOWISH WTR NOT AVBL
ARBOR VITAE    LGT RAIN  49  48  94 W10G18    29.72S
WOODRUFF       LGT RAIN  49  48  94 W10G18    29.72S
RHINELANDER    LGT RAIN  48  48 100 W16G24    29.74F FOG
6HR MIN TEMP:  48; 6HR MAX TEMP:  52; 6HR PCP:  0.02;

EAGLE RIVER    CLOUDY    48  47  97 W13       29.70F
LAND O LAKES   LGT RAIN  48  46  93 W8G17     29.70F
PHILLIPS       RAIN      47  46  96 W8        29.76S
TOMAHAWK       CLOUDY    47  45  90 W8        29.77F
MEDFORD        CLOUDY    50  45  83 W14G25    29.81S
MERRILL        LGT RAIN  50  46  88 W14       29.79S
$$

WIZ029-030-035-036-043>047-261300-
CENTRAL WISCONSIN

CITY           SKY/WX    TMP DP  RH WIND       PRES   REMARKS
WAUSAU         CLOUDY    52  43  71 W20G26    29.79F
6HR MIN TEMP:  50; 6HR MAX TEMP:  54;

MOSINEE        MOCLDY    52  45  76 W17G24    29.83S
MARSHFIELD     CLEAR     50  42  74 W13G22    29.84S
6HR MIN TEMP:  50; 6HR MAX TEMP:  54;

STEVENS POINT  CLOUDY    51  43  75 W16G23    29.85R
WAUPACA        MOCLDY    55  46  69 SW16G23   29.85S
WAUTOMA        CLEAR     52  45  77 SW13        N/A
6HR MIN TEMP:  52; 6HR MAX TEMP:  59;

WISC RAPIDS    CLEAR     50  45  83 W9        29.88S
6HR MIN TEMP:  50; 6HR MAX TEMP:  55;

CAMP DOUGLAS   NOT AVBL
$$

WIZ011>013-019>022-031-037>040-048>050-261300-
NORTHEAST WISCONSIN

CITY           SKY/WX    TMP DP  RH WIND       PRES   REMARKS
ANTIGO         CLOUDY    49  44  85 W10G18    29.78S
SHAWANO        PTCLDY    52  45  75 SW9       29.81S
OCONTO         NOT AVBL
STURGEON BAY   CLOUDY    54  45  71 SW14G21   29.80S
6HR MIN TEMP:  54; 6HR MAX TEMP:  61;

GREEN BAY      CLEAR     52  46  80 SW10      29.82F
6HR MIN TEMP:  52; 6HR MAX TEMP:  60;

MANITOWOC      NOT AVBL
APPLETON       MOCLDY    54  43  66 SW14      29.84S
CLINTONVILLE   NOT AVBL
OSHKOSH        CLEAR     53  46  77 W8        29.86F
6HR MIN TEMP:  53; 6HR MAX TEMP:  60;

$$

WIZ032>034-041-042-053>061-261300-
SOUTHWEST WISCONSIN

CITY           SKY/WX    TMP DP  RH WIND       PRES   REMARKS
LA CROSSE      PTCLDY    54  43  66 W14       29.95S
6HR MIN TEMP:  54; 6HR MAX TEMP:  59;

SPARTA         CLEAR     49  45  85 SW5       29.94S
VIROQUA        PTCLDY    47  43  84 W7        29.96S
BOSCOBEL       CLEAR     51  44  77 SW5       29.99S
6HR MIN TEMP:  51; 6HR MAX TEMP:  60;

PRAIRIE DU CHI CLEAR     52  41  67 W7        30.00S
PLATTEVILLE    CLEAR     50  46  84 W7        30.01R
$$

WIZ056-057-062-063-064-067-068-261300-
SOUTH CENTRAL WISCONSIN

CITY           SKY/WX    TMP DP  RH WIND       PRES   REMARKS
REEDSBURG      NOT AVBL
BARABOO/DELLS  CLEAR     51  44  77 W9        29.94S
LONE ROCK      NOT AVBL
MINERAL POINT  CLEAR     50  46  87 W8        29.99R
MADISON        PTCLDY    53  45  74 VRB6      29.95S
6HR MIN TEMP:  53; 6HR MAX TEMP:  60;

MIDDLETON      CLEAR     52  46  81 W9        29.97S
WATERTOWN      CLEAR     53  50  90 SW7       29.94S
MONROE         CLEAR     52  45  76 W13       29.98S
JANESVILLE     CLEAR     54  48  82 W9        29.98R
$$

WIZ051-052-058>065-066-070>072-261300-
SOUTHEAST WISCONSIN

CITY           SKY/WX    TMP DP  RH WIND       PRES   REMARKS
MILWAUKEE      CLOUDY    59  49  69 W14       29.94R
6HR MIN TEMP:  59; 6HR MAX TEMP:  64;

WAUKESHA       CLEAR     54  48  82 W9        29.95R
MILWAUKEE/TIMM CLOUDY    55  46  71 W9        29.94R
RACINE         CLOUDY    57  49  74 W8        29.96S
6HR MIN TEMP:  57; 6HR MAX TEMP:  63;

BURLINGTON     CLOUDY    53  48  82 W6        29.96R
KENOSHA        CLOUDY    56  50  80 W9        29.96R
6HR MIN TEMP:  56; 6HR MAX TEMP:  63;

FOND DU LAC    PTCLDY    53  47  79 SW10      29.90S
6HR MIN TEMP:  53; 6HR MAX TEMP:  61;

SHEBOYGAN      CLOUDY    54  46  74 SW13      29.88S
6HR MIN TEMP:  54; 6HR MAX TEMP:  61;

WEST BEND      CLOUDY    54  46  76 W10G17    29.91S
JUNEAU         CLEAR     51  48  88 SW12G17   29.93S
$$

LSZ147-162-261300-
LAKE SUPERIOR

STATION/POSITION TIME  TEMP    WIND        PRES    WAVE
                       AIR SEA DIR/SP/G            HT/PER
                 (UTC) (F)     (DEG/KT/KT) (MB)    (FT/S)
W MID LAKE BUOY  1050   54 59  240/ 25/ 29 1000.2F   7/ 7
DEVILS ISLAND    1100   53     250/ 25/ 30 1002.7F
SAXON HARBOR     1140   52     220/ 12/ 17 1004.7F
$$

LMZ867-665-643>646-261300-
LAKE MICHIGAN

STATION/POSITION TIME  TEMP    WIND        PRES    WAVE
                       AIR SEA DIR/SP/G            HT/PER
                 (UTC) (F)     (DEG/KT/KT) (MB)    (FT/S)
CHAMBERS ISLAND  1100   55     220/ 12/ 20 1007.5R
S GREEN BAY BUOY 1130   57 65  230/ 21/ 27 1008.7
N MID LAKE BUOY  1050   60 67  240/ 23/ 29 1005.7F   5/ 6
NORTHPORT PIER   1100   57     270/  7/ 16 1007.5S
KEWAUNEE LAKESHO 1100   55     250/  8/ 13 1009.6S
SHEBOYGAN LAKESH 1100   58     250/ 13/ 16 1011.4R
PORT WASHINGTON  1100   58     260/  6/ 10 1013.2F
ATWATER BUOY     1100   59 54  240/ 10/ 14 1013.2F
MILWAUKEE LAKESH 1110   59     250/  9/ 12   N/A
S MID LAKE BUOY  1050   63 71  290/ 19/ 25 1012.7R   5/ 5
KENOSHA   LAKESH 1100   60     260/ 11/ 13 1013.9S
$$

TC  - TEMPERATURE IN CELSIUS
VSB - VISIBILITY IN STATUTE MILES
WCI - WIND CHILL INDEX
HX  - HEAT INDEX





USA.gov is the U.S. government's official web portal to all federal, state and local government web resources and services.